Live-Position
3D-Globus wird geladen...
Über GPS IIA-16
Group: 3 satellites
Beschreibung wird geladen...
Nächste Überflüge
Passes for default location (London). Set your location on the main map for personalized predictions.
Höhenverlauf
Loading altitude history...
No altitude history available
Zweizeiliger Elementsatz
1 23833U 96019A 26104.99296249 -.00000011 00000-0 00000+0 0 9999
2 23833 52.8634 267.6951 0008710 26.6057 152.0433 1.94619621 81531
Epoch: 14. Apr. 2026 •
Age: 56 hours
Aktueller Status
Höhe 20698.0 km
Geschwindigkeit 3.84 km/s
Subsatellitenpunkt 4.85°N,
47.83°W
Startdatum 28. März 1996
Alter 30 years
Typ navigation
Technische Details
Klassifizierung Payload
Masse 860.00 kg
Trockenmasse 860.00 kg
Gesamtmasse 1881.00 kg
Länge 2.40 m
Durchmesser 1.80 m
Spannweite 5.30 m
Form Box + 2 Pan
Hersteller RWISB
Bus-Typ GPS
Phasenstatus In Orbit
Besitzer/Staat AFSMC/US
Most Searched
Loading...